sat.trackr.live / text

‹ back to catalog

JILIN-1 GAOFEN 2B

NORAD 44836 · 2019-086A

PAYLOAD ACTIVE UNKNOWN

§ Identity

Operator
Country
PRC
Launch date
2019-12-07
Launch site
TAISC
Launch vehicle
Mass (kg)
RCS (m²)

External: N2YO · Heavens-Above · Gunter

§ Orbital elements

Epoch: 2026-09-20T04:47:19.665024Z

Period
94.64 min
Inclination
97.4797°
Eccentricity
0.0013378
Mean motion
15.21627488 rev/d
Perigee alt
491.7 km
Apogee alt
510.1 km
Semi-major
6,879.1 km
B*
1.6389e-4
RAAN
334.6119°
Arg perigee
354.1059°
Mean anomaly
6.0017°
Rev number
37,493

§ Raw data

JILIN-1 GAOFEN 2B1 44836U 19086A   26263.19953316  .00003638  00000+0  16389-3 0  99942 44836  97.4797 334.6119 0013378 354.1059   6.0017 15.21627488374930

JSON: /api/v1/satellites/44836 · /tle

For live sub-satellite position, see the globe view (requires WebGL).

§ Visibility from observer

Set your observer location to see the next 7 days of passes ≥ 10°. The values pass through the URL so the page stays shareable.

No JS? Fill the form by hand. The geolocation button needs JavaScript.

§ Radio — SatNOGS DB

ModeDescriptionDownlinkUplink
FM S-band telemetry 2.219 GHz

1 transmitter · refreshed weekly from db.satnogs.org